Location: Unspecified
(0.0000°N, 0.0000°E)
Time: 22:45:15
(UTC+02:00)

Cosmos 1295 Rocket - Visible Passes

Search period start: 31 March 2015 00:00
Search period end: 10 April 2015 00:00
Orbit: 943 x 995 km, 82.9° (Epoch: 30 March)

Date Brightness Start Highest point End Pass type
(mag) Time Alt. Az. Time Alt. Az. Time Alt. Az.
31 Mar 4.5 07:01:05 10° SSW 07:07:16 62° W 07:13:20 10° N visible
01 Apr 6.7 05:41:09 10° SE 05:45:34 21° E 05:50:14 10° NE visible
01 Apr 5.2 07:25:21 10° SW 07:30:44 29° W 07:35:54 10° NNW visible
02 Apr 5.5 06:03:14 10° SSE 06:09:07 45° E 06:14:58 10° NNE visible
03 Apr 4.4 06:26:19 10° S 06:32:34 87° W 06:38:44 10° N visible
04 Apr 7.0 05:07:46 10° SE 05:10:47 15° E 05:14:15 10° ENE visible
04 Apr 4.8 06:50:10 10° SSW 06:56:01 41° W 07:01:42 10° NNW visible
05 Apr 6.0 05:29:01 10° SSE 05:34:23 32° E 05:39:48 10° NNE visible
05 Apr 5.6 07:15:05 10° SW 07:19:32 19° W 07:23:37 10° NW visible
06 Apr 4.7 05:55:13 35° SSE 05:57:52 67° E 06:03:57 10° N visible
07 Apr 4.4 06:21:01 58° W 06:21:18 59° W 06:27:17 10° N visible
08 Apr 6.6 05:01:26 20° ENE 05:01:26 20° ENE 05:04:21 10° NE visible
08 Apr 5.4 06:46:03 25° WNW 06:46:03 25° WNW 06:49:45 10° NNW visible
09 Apr 6.0 05:26:05 28° NE 05:26:05 28° NE 05:29:00 10° NNE visible
